Location: Newark
(54.6833°N, 25.2833°E)
Time: 10:20:29
(UTC+00:00)

Vanguard 2 Rocket - Visible Passes

Search period start: 28 November 2020 00:00
Search period end: 08 December 2020 00:00
Orbit: 553 x 3326 km, 32.9° (Epoch: 27 November)

Date Brightness Start Highest point End Pass type
(mag) Time Alt. Az. Time Alt. Az. Time Alt. Az.
28 Nov 11.3 05:18:09 10° SSW 05:31:32 23° SSE 05:43:21 10° ESE visible
29 Nov 11.3 04:19:30 10° S 04:30:55 19° SE 04:41:41 10° ESE visible
30 Nov 11.4 03:22:40 10° SSE 03:30:31 14° SE 03:38:16 10° ESE visible
30 Nov 11.2 05:29:08 10° SSW 05:44:13 28° SSE 05:57:35 10° ESE visible
01 Dec 11.1 04:29:42 10° SSW 04:43:25 24° SSE 04:56:28 10° ESE visible
02 Dec 11.1 03:31:18 10° S 03:42:48 19° SE 03:54:23 10° ESE visible
03 Dec 11.2 02:34:43 10° SSE 02:42:29 14° SE 02:50:33 10° ESE visible
03 Dec 11.0 04:40:58 10° SSW 04:55:56 29° SSE 05:10:30 10° ESE visible
04 Dec 10.9 03:41:52 10° SSW 03:55:09 24° SSE 04:08:57 10° ESE visible
05 Dec 10.9 02:43:48 10° S 02:54:39 19° SE 03:06:24 10° ESE visible
05 Dec 10.9 04:52:54 10° SW 05:08:32 33° SSE 05:24:06 10° ESE visible
06 Dec 11.0 01:47:39 10° SSE 01:54:33 13° SE 02:01:58 10° ESE visible
06 Dec 10.8 03:53:23 10° SSW 04:07:36 29° SSE 04:22:49 10° ESE visible
07 Dec 10.7 02:54:38 10° SSW 03:06:56 24° SSE 03:20:48 10° ESE visible
07 Dec 10.8 05:05:19 10° SW 05:21:12 35° S 05:37:25 10° ESE visible
